Location: Baikonur
(45.6232°N, 63.3140°E)
Time: 21:11:38
(UTC+06:00)

ISS - Pass Details

Date: 03 June 2018
Orbit: 402 x 406 km, 51.6° (Epoch: 20 June)

Event Time Altitude Azimuth Distance (km) Brightness Sun altitude
Rises 23:06:15 0° 298° (WNW) 2,324 1.3 -13.0°
Reaches altitude 10° 23:08:20 10° 298° (WNW) 1,461 0.1 -13.3°
Maximum altitude 23:11:36 85° 212° (SSW) 409 -3.9 -13.6°
Enters shadow 23:13:16 27° 123° (ESE) 821 -2.8 -13.8°
